DW6283 Weather Reports


Display with metric or nautical units.
time (UTC)temp
F
wind
direction
speed
MPH
gust
MPH
rain 1hr
in
rain 24hr
in
rain mn
in
humidity
%
barometer
mb
20260510150049 70 117 0.0 0.0 0.00 0.00 0.00 68 1012.0
20260510144528 67 117 0.0 0.0 0.00 0.00 0.00 75 1011.9
20260510143027 64 117 0.0 0.0 0.00 0.00 0.00 82 1011.8
20260510141510 61 117 0.0 0.0 0.00 0.00 0.00 88 1011.7
20260510140010 59 117 0.0 0.0 0.00 0.00 0.00 88 1011.5
20260510134555 58 117 0.0 0.0 0.00 0.00 0.00 88 1011.3
20260510133051 58 117 0.0 0.0 0.00 0.00 0.00 87 1011.1
20260510131532 58 117 0.0 0.0 0.00 0.00 0.00 87 1011.0
20260510130044 58 117 0.0 0.0 0.00 0.00 0.00 86 1010.8
20260510124512 58 117 0.0 0.0 0.00 0.00 0.00 85 1010.8
20260510123012 59 117 0.0 0.0 0.00 0.00 0.00 85 1010.8
20260510121553 59 117 0.0 0.0 0.00 0.00 0.00 85 1010.7
20260510120051 59 117 0.0 0.0 0.00 0.00 0.00 84 1010.8
20260510114532 60 117 0.0 0.0 0.00 0.00 0.00 84 1010.6
20260510113030 60 117 0.0 0.0 0.00 0.00 0.00 83 1010.6
20260510111511 60 117 0.0 0.0 0.00 0.00 0.00 82 1010.6
20260510110022 61 117 0.0 0.0 0.00 0.00 0.00 81 1010.6
20260510104557 61 117 0.0 0.0 0.00 0.00 0.00 81 1010.5
20260510103050 61 117 0.0 1.0 0.00 0.00 0.00 80 1010.5
20260510101536 62 117 0.0 0.0 0.00 0.00 0.00 79 1010.4
20260510100030 62 117 0.0 0.0 0.00 0.00 0.00 78 1010.4
20260510094512 63 117 0.0 0.0 0.00 0.00 0.00 77 1010.4
20260510093010 63 117 0.0 0.0 0.00 0.00 0.00 76 1010.4
20260510091553 64 117 0.0 0.0 0.00 0.00 0.00 75 1010.4
20260510090052 64 117 0.0 0.0 0.00 0.00 0.00 74 1010.4
20260510084536 65 117 0.0 1.0 0.00 0.00 0.00 73 1010.5
20260510083041 65 117 0.0 1.0 0.00 0.00 0.00 73 1010.4
20260510081516 66 117 0.0 1.0 0.00 0.00 0.00 72 1010.6
20260510080016 66 117 0.0 3.0 0.00 0.00 0.00 70 1010.6
20260510074600 67 117 0.0 2.0 0.00 0.00 0.00 69 1010.5
20260510073107 67 117 0.0 3.0 0.00 0.00 0.00 68 1010.6
20260510071541 68 117 0.0 2.0 0.00 0.00 0.00 66 1010.7
20260510070039 68 117 0.0 1.0 0.00 0.00 0.00 65 1010.6
20260510064530 69 117 0.0 2.0 0.00 0.00 0.00 64 1010.5
20260510063022 70 117 0.0 2.0 0.00 0.00 0.00 62 1010.4
20260510061509 71 118 0.0 3.0 0.00 0.00 0.00 60 1010.3
20260510060007 72 119 0.0 2.0 0.00 0.00 0.00 58 1010.3
20260510054545 72 119 0.0 1.0 0.00 0.00 0.00 56 1010.3
20260510053045 73 119 0.0 1.0 0.00 0.00 0.00 54 1010.3
20260510051534 74 119 0.0 2.0 0.00 0.00 0.00 52 1010.3
20260510050033 75 119 0.0 2.0 0.00 0.00 0.00 51 1010.2
20260510044532 75 119 0.0 4.0 0.00 0.00 0.00 50 1010.2
20260510043032 76 119 0.0 1.0 0.00 0.00 0.00 49 1010.1
20260510041531 77 119 0.0 1.0 0.00 0.00 0.00 48 1010.0
20260510040030 77 119 0.0 3.0 0.00 0.00 0.00 46 1009.8
20260510034529 78 120 0.0 3.0 0.00 0.00 0.00 45 1009.6
20260510033029 79 86 0.0 3.0 0.00 0.00 0.00 43 1009.4
20260510031528 81 86 0.0 3.0 0.00 0.00 0.00 41 1009.3
20260510030021 82 86 0.0 5.0 0.00 0.00 0.00 39 1009.2
20260510024514 83 86 0.0 5.0 0.00 0.00 0.00 37 1009.1
20260510023053 85 92 0.0 3.0 0.00 0.00 0.00 36 1009.0
20260510021552 86 59 0.0 5.0 0.00 0.00 0.00 36 1008.9
20260510020033 87 92 0.0 3.0 0.00 0.00 0.00 34 1008.9
20260510014532 88 95 0.0 4.0 0.00 0.00 0.00 31 1008.9
20260510013014 89 106 0.0 3.0 0.00 0.00 0.00 28 1008.9
20260510011516 90 56 0.0 3.0 0.00 0.00 0.00 28 1008.9
20260510010055 90 85 0.0 2.0 0.00 0.00 0.00 28 1008.9
20260510004554 91 123 0.0 4.0 0.00 0.00 0.00 28 1009.0
20260510003037 92 51 0.0 3.0 0.00 0.00 0.00 27 1009.0
20260510001535 92 96 0.0 2.0 0.00 0.00 0.00 26 1009.1
20260510000016 93 105 0.0 3.0 0.00 0.00 0.00 25 1009.2
20260509234529 93 32 0.0 4.0 0.00 0.00 0.00 26 1009.4
20260509233057 93 46 0.0 5.0 0.00 0.00 0.00 24 1009.4
20260509231601 94 142 0.0 4.0 0.00 0.00 0.00 25 1009.6
20260509230041 94 102 0.0 2.0 0.00 0.00 0.00 26 1009.7
20260509224545 94 59 0.0 4.0 0.00 0.00 0.00 29 1009.9
20260509223015 94 56 0.0 5.0 0.00 0.00 0.00 30 1010.2
20260509221512 94 127 0.0 6.0 0.00 0.00 0.00 28 1010.4
20260509220053 94 65 0.0 4.0 0.00 0.00 0.00 28 1010.6
20260509214552 94 61 0.0 2.0 0.00 0.00 0.00 28 1010.8
20260509213033 94 71 0.0 3.0 0.00 0.00 0.00 27 1011.0
20260509211531 93 77 0.0 2.0 0.00 0.00 0.00 31 1011.2
20260509210012 94 76 0.0 2.0 0.00 0.00 0.00 29 1011.4
20260509204509 93 78 0.0 3.0 0.00 0.00 0.00 31 1011.5
20260509203056 93 52 0.0 3.0 0.00 0.00 0.00 29 1011.6
20260509201546 92 53 0.0 3.0 0.00 0.00 0.00 33 1011.7
20260509200027 92 61 0.0 2.0 0.00 0.00 0.00 32 1011.8
20260509194527 91 73 0.0 1.0 0.00 0.00 0.00 34 1012.0
20260509193007 90 121 0.0 2.0 0.00 0.00 0.00 35 1012.1
20260509191502 90 59 0.0 1.0 0.00 0.00 0.00 37 1012.3
20260509190041 88 61 0.0 1.0 0.00 0.00 0.00 40 1012.5
20260509184544 87 89 0.0 1.0 0.00 0.00 0.00 40 1012.7
20260509183015 84 89 0.0 2.0 0.00 0.00 0.00 43 1012.9
20260509181514 84 89 0.0 2.0 0.00 0.00 0.00 41 1013.0
20260509180113 85 89 0.0 1.0 0.00 0.00 0.00 43 1013.0
20260509174554 84 89 0.0 1.0 0.00 0.00 0.00 44 1013.1
20260509173040 83 89 0.0 2.0 0.00 0.00 0.00 44 1013.2
20260509171527 82 89 0.0 0.0 0.00 0.00 0.00 47 1013.2
20260509170007 80 89 0.0 1.0 0.00 0.00 0.00 49 1013.4
20260509164503 79 89 0.0 3.0 0.00 0.00 0.00 50 1013.3
20260509163044 78 89 0.0 1.0 0.00 0.00 0.00 50 1013.4
20260509161544 76 89 0.0 0.0 0.00 0.00 0.00 54 1013.4
20260509160017 74 89 0.0 1.0 0.00 0.00 0.00 56 1013.4
20260509154516 72 89 0.0 0.0 0.00 0.00 0.00 59 1013.5
20260509153106 70 89 0.0 0.0 0.00 0.00 0.00 64 1013.5
20260509151557 68 89 0.0 0.0 0.00 0.00 0.00 69 1013.3